Regional Weather Roundup
Issued by NWS Charleston, SC

Home | Current Version | Previous Version | Text Only | Print | Product List | Glossary On
Versions: 1 2 3 4 5 6 7 8 9 10 11 12 13 14 15 16 17 18 19 20 21 22 23 24 25 26 27 28 29 30 31 32 33 34 35 36 37 38 39 40 41 42 43 44 45 46 47 48 49 50
000
ASUS42 KCHS 170410
RWRCHS

REGIONAL WEATHER ROUNDUP
NATIONAL WEATHER SERVICE CHARLESTON SC
1200 AM EDT WED SEP 17 2014

NOTE: "FAIR" INDICATES FEW OR NO CLOUDS BELOW 12,000 FEET WITH NO
SIGNIFICANT WEATHER AND/OR OBSTRUCTIONS TO VISIBILITY.

NOT ALL STATIONS ARE QUALITY CONTROLLED BY THE NATIONAL
WEATHER SERVICE. USE DATA WITH CAUTION...ESPECIALLY
DEWPOINT OBSERVATIONS.

SCZ027-030-031-034>040-042>050-170500-
...SOUTH CAROLINA...

CITY           SKY/WX    TMP DP  RH WIND       PRES   REMARKS
N CHARLESTON   PTCLDY    72  70  93 SE5       29.95R
WATERFRONT PRK   N/A     79 N/A N/A E6          N/A
FORT JOHNSON   NOT AVBL
MOUNT PLEASANT FAIR      72  72 100 CALM      29.96R FOG
JOHNS ISLAND   PTCLDY    73  73 100 CALM      29.96R
PINOPOLIS        N/A     73  70  88 S3        29.87S
MONCKS CORNER  NOT AVBL
SUMMERVILLE    NOT AVBL
BEAUFORT MCAS  LGT RAIN  75  73  93 CALM      29.95R
BEAUFORT ARPT  FAIR      73  73 100 CALM      29.93F FOG
HILTON HEAD IS CLOUDY    75  75 100 CALM      29.95F
GEORGETOWN     NOT AVBL
WALTERBORO     CLOUDY    73 N/A N/A CALM      29.96R
ORANGEBURG     MOCLDY    71  68  90 W3        29.96R
BARNWELL       MOCLDY    73  70  88 W7        29.97S
AIKEN          MOCLDY    70  70 100 S9        30.00S
MANNING        FAIR      72 N/A N/A CALM      29.96R
KINGSTREE      NOT AVBL
COLUMBIA       MOCLDY    75  69  81 W6        29.94R
SUMTER         MOCLDY    72  68  86 SW3       29.93S
FLORENCE       MOCLDY    73  69  87 S3        29.95S
MYRTLE BEACH   PTCLDY    73  70  88 N5        29.95S
N MYRTLE BEACH PTCLDY    75  72  90 NW6       29.95R

$$

GAZ063-065-086>088-099>101-113>116-118-119-134-136>141-150-170500-
...GEORGIA...

CITY           SKY/WX    TMP DP  RH WIND       PRES   REMARKS
SAVANNAH ARPT  MOCLDY    72  69  90 SW7       29.95F
HUNTER AAF     MOCLDY    70  70 100 S6        29.93F
FORT STEWART   MOCLDY    73  68  86 W5        29.95S
STATESBORO     NOT AVBL
SYLVANIA       PTCLDY    74  73  96 CALM      29.96F
CLAXTON        FAIR      72  72 100 CALM      29.96F
THOMSON        PTCLDY    73  73 100 CALM      30.01S
AUGUSTA-BUSH   CLOUDY    74  71  91 E9        29.97R
AUGUSTA-DANIEL PTCLDY    76  72  87 SE9       29.98R
SWAINSBORO     FAIR      72  72 100 SE3       29.98S
VIDALIA        CLOUDY    72  70  94 CALM      29.98R
ALMA           MOCLDY    71  69  93 N6        29.96F
WAYCROSS       MOCLDY    73  73  97 CALM      29.96F
JESUP          FAIR      75  72  88 NW5       29.96F
BRUNSWICK      MOCLDY    75  72  88 CALM      29.96F
SAINT SIMONS   CLOUDY    75  72  90 NW6       29.95F

$$

SCZ027-028-034-036>038-045-046-048>050-GAZ119-141-170500-
...LAKE AND SUPPLEMENTAL COASTAL OBSERVATIONS...

STATION/POSITION TIME  TEMP    WIND        PRES    WAVE   SWELL
                       AIR SEA DIR/SP/G            HT/PER HT/PER/DIR
                 (UTC) (F)     (DEG/KT/KT) (MB)    (FT/S) (FT/S/D)
UPR LAKE MARION  NOT AVBL
WINYAH BAY       0300   73        CALM     1014.0S
LAKE MURRAY      0300   76     230/  7/ 11 1013.9R
ACE BASIN NERRS  0300   73        CALM     1014.0S
FORT PULASKI     0400   72     220/  5/  8 1014.3F
SAPELO ISLAND    0300   78     260/  7     1015.0S

$$

ANZ835-935-AMZ111-154-330-350-352-354-374-450-454-472-170500-
...C-MAN AND BUOY OBSERVATIONS...

STATION/POSITION TIME  TEMP    WIND        PRES    WAVE   SWELL
                       AIR SEA DIR/SP/G            HT/PER HT/PER/DIR
                 (UTC) (F)     (DEG/KT/KT) (MB)    (FT/S) (FT/S/D)
FOLLY BEACH CMAN 0300   76     110/  5/  7 1014.1F
BUOY 41004       0400   78 83  160/  8/ 10 1013.8R   2/12   2/12
BUOY 41008       0400   74 84   60/ 14/ 17 1014.6R   2/ 3   2/100/ 8
5E ST. MARYS GA  0400      83                N/A     2/13
FRYING PAN BUOY  NOT AVBL
BUOY 41025       0400   74     350/ 10/ 12 1014.4F   2/12   2/ 90/12
CAPE LOOKOUT NC  0300   78     200/  5/  6 1014.2F
BUOY 41002       0303   79 82  170/  6/ 10 1014.8    4/15   3/100/15
BUOY 41010       0400   82 85  210/  6/  8 1015.4R   2/13   2/110/13
BUOY 41012       NOT AVBL
ST AUGUSTINE FL  0400   74     250/  4/  5 1015.2F
CAPERS NEARSHORE 0300   76      70/  6/  6   N/A
FRIPP NEARSHORE  NOT AVBL


$$



USA.gov is the U.S. government's official web portal to all federal, state and local government web resources and services.